Flag for U.S.A. Weather past 2 weeks in Owensboro, Kentucky, U.S.A.

Now
89 °F

Sunny.


Feels Like: 94 °F
Forecast: 68 / 91 °F
Wind: 5 mph from Southwest

Location: Owensboro / Daviess

Current Time: Jul 22, 2014 at 4:54:15 PM

Latest Report: Jul 22, 2014 at 11:56 AM


Visibility: 10 mi

Pressure: 30.08 "Hg

Humidity: 54%

Dew point: 70 °F

Location of OwensboroLocation

Historic Weather in Owensboro — Graph

°F

Owensboro temperature yesterday

Maximum temperature yesterday: 88 °F (at 1:56 PM)
Minimum temperature yesterday: 65 °F (at 5:56 AM)
Average temperature yesterday: 78 °F

Past Weeks' High & Low Weather Summary

 TemperatureHumidityPressure
High95 °F (Jul 13, 2:56 PM)100% (Jul 9, 1:56 AM)30.19 "Hg (Jul 9, 1:56 AM)
Low55 °F (Jul 16, 5:56 AM)31% (Jul 17, 2:56 PM)29.81 "Hg (Jul 8, 12:56 AM)
Average75 °F70%30.02 "Hg
* Reported Jul 7 11:56 AM — Jul 22 11:56 AM, Owensboro, Weather by CustomWeather, © 2014

Note: Actual official high and low records may vary slightly from our data, if they occured in-between our weather recording intervals... More about our weather records

Advertising

Owensboro weather history for previous 24 hours

 ConditionsComfort  
Time TempWeatherWind HumidityBarometerVisibility
11:56 AM
Jul 22
89 °FSunny.5 mph54%30.08 "Hg10 mi
10:56 AM88 °FSunny.6 mph61%30.08 "Hg10 mi
9:56 AM85 °FSunny.6 mph63%30.07 "Hg8 mi
8:56 AM82 °FSunny.5 mph65%30.09 "Hg7 mi
7:56 AM76 °FSunny.No wind79%30.10 "Hg6 mi
6:56 AM69 °FFog.No wind97%30.10 "Hg4 mi
5:56 AM67 °FFog.No wind93%30.09 "Hg3 mi
4:56 AM68 °FFog.No wind93%30.07 "Hg5 mi
3:56 AM69 °FFog.No wind93%30.06 "Hg5 mi
2:56 AM69 °FFog.No wind90%30.06 "Hg6 mi
1:56 AM69 °FClear.No wind90%30.05 "Hg7 mi
12:56 AM71 °FClear.No wind84%30.05 "Hg8 mi
11:56 PM
Jul 21
73 °FClear.No wind79%30.06 "Hg8 mi
10:56 PM73 °FClear.No wind79%30.06 "Hg10 mi
9:56 PM79 °FClear.5 mph67%30.06 "Hg10 mi
8:56 PM81 °FSunny.No wind60%30.05 "Hg10 mi
7:56 PM83 °FSunny.3 mph56%30.04 "Hg10 mi
6:56 PM86 °FSunny.6 mph49%30.04 "Hg10 mi
5:56 PM88 °FSunny.6 mph46%30.04 "Hg10 mi
4:56 PM87 °FPassing clouds.9 mph46%30.04 "Hg10 mi
Weather by CustomWeather, © 2014

See weather overviewHow to use our weather pages